User: anonymous   Login
Location: Unspecified
(0.0000°N, 0.0000°E)
Time: 07:21:53
(UTC+00:00)
Language:

WGS F2 (USA 204) - Orbit

View from above orbital plane
View from above orbital plane
View from above satellite
View from above satellite

Ground track
Ground track

The orbit data is extracted from the following two-line orbital elements,

1 34713U 09017A   18351.13522120  .00000062  00000-0  00000+0 0  9996
2 34713   0.0180 353.7263 0000102 270.8570 290.0554  1.00272197 35473
Epoch (UTC): 17 December 2018 03:14:43
Eccentricity: 0.0000102
inclination: 0.0180°
perigee height: 35785 km
apogee height: 35786 km
right ascension of ascending node: 353.7263°
argument of perigee: 270.8570°
revolutions per day: 1.00272197
mean anomaly at epoch: 290.0554°
orbit number at epoch: 3547

The dashed part of the orbit path shows where the satellite is in the earth's shadow,  

DLR